GSAT-18

Last updated on Sun Apr 12 2026 00:02:54 GMT+0000 (Coordinated Universal Time)

1 41793U 16060A 26101.47406078 -.00000076 00000+0 00000+0 0 9995 2 41793 0.0325 91.1353 0004943 321.4578 31.7442 1.00273000 34852
UTC large
Height (km)
Speed (km/s)
/
Latitude / Longitude
Inclination (degrees)
Orbital Period (minutes)
Azimuth
Elevation
Range (km)
Doppler Factor

Next 0 passes for location: London (51.5072 / 0.1276)

Sorry there are no passes over London.